Weather observations for the past three days for
West Plains, West Plains Municipal Airport
Imperial (Metric)
Date Time (cdt) Wind (mph) Vis. (mi.) Weather Sky Cond. Temperature (ºF) Relative Humidity Wind Chill (°F) Heat Index (°F) Pressure Precipitation (in)
Air Dwpt 6 hour altimeter (in) sea level (mb) 1 hr 3 hr 6 hr
Max. Min.
22 12:53 SW 12 G 20 10.00 Mostly Cloudy SCT046 BKN055 87.1 64.9 87.1 75 48% 89 30.06 1016.4
22 11:53 SW 10 10.00 Fair CLR 86 66.9 53% 89 30.08 1017.0
22 10:53 SW 8 10.00 Fair CLR 84.9 66.9 55% 88 30.1 1017.6
22 09:53 SW 10 10.00 Fair CLR 82.9 66.9 59% 86 30.11 1018.0
22 08:53 SW 9 G 20 10.00 Fair CLR 81 68 65% 84 30.12 1018.5
22 07:53 SW 6 10.00 Fair CLR 78.1 66.9 69% 80 30.13 1018.6
22 06:53 SW 7 10.00 Fair CLR 75 66 77 72 74% 76 30.13 1018.6
22 05:53 S 3 10.00 Fair CLR 73 64.9 76% 30.12 1018.6
22 04:53 S 3 10.00 Fair CLR 73 64.9 76% 30.13 1018.7
22 03:53 SW 5 10.00 A Few Clouds FEW065 73.9 66 76% 30.14 1018.9
22 02:53 SW 3 10.00 Fair CLR 75 66 74% 76 30.14 1019.2
22 01:53 S 5 10.00 Fair CLR 75.9 66 72% 77 30.15 1019.3
22 00:53 S 3 10.00 Fair CLR 77 66 86 75.9 69% 79 30.14 1019.1
21 23:53 S 5 10.00 Fair CLR 77 68 74% 79 30.14 1019.2
21 22:53 S 3 10.00 Fair CLR 75.9 68 77% 77 30.15 1019.4
21 21:53 SE 3 10.00 Fair CLR 78.1 68 71% 80 30.14 1019.1
21 20:53 Calm 10.00 Fair CLR 80.1 68 67% 83 30.14 1018.9
21 19:53 SE 3 10.00 Fair CLR 82.9 68 61% 86 30.14 1019.1
21 18:53 S 8 10.00 Fair CLR 86 66.9 89.1 84.9 53% 89 30.15 1019.6
21 17:53 SE 6 10.00 Partly Cloudy SCT080 87.1 66 50% 89 30.17 1020.1
21 16:53 SE 7 10.00 A Few Clouds FEW048 87.1 64.9 48% 89 30.18 1020.5
21 15:53 SE 5 10.00 Mostly Cloudy BKN060 BKN070 87.1 64.9 48% 89 30.19 1020.8
21 14:53 S 6 10.00 Mostly Cloudy SCT046 BKN060 BKN075 87.1 64.9 48% 89 30.21 1021.5
21 13:53 Calm 10.00 Partly Cloudy FEW047 SCT065 86 63 46% 87 30.23 1022.2
21 12:53 W 6 10.00 Partly Cloudy SCT044 84.9 64 86 72 50% 86 30.25 1023.1
21 11:53 W 6 10.00 Mostly Cloudy FEW039 BKN060 84.9 64.9 51% 87 30.28 1023.8
21 10:53 S 7 10.00 A Few Clouds FEW037 84 64.9 53% 86 30.29 1024.2
21 09:53 S 5 10.00 Fair CLR 82.9 66 57% 85 30.29 1024.1
21 08:53 SE 6 10.00 Fair CLR 81 66.9 62% 83 30.29 1024.3
21 07:53 Calm 10.00 Fair CLR 77 66.9 71% 79 30.29 1024.1
21 06:53 Calm 10.00 Fair CLR 72 66 72 66 82% 30.28 1024.0
21 05:53 Calm 10.00 Fair CLR 66 62.1 87% 30.28 1024.0
21 04:53 Calm 10.00 Fair CLR 66.9 62.1 84% 30.28 1023.9
21 03:53 Calm 10.00 Fair CLR 68 64 87% 30.27 1023.7
21 01:53 Calm 10.00 Fair CLR 69.1 64.9 87% 30.27 1023.5
21 00:53 Calm 10.00 Fair CLR 69.1 64.9 84 69.1 87% 30.27 1023.6
20 23:53 Calm 10.00 Fair CLR 70 66 87% 30.27 1023.7
20 22:53 Calm 10.00 Fair CLR 73.9 66.9 79% 30.26 1023.3
20 21:53 Calm 10.00 Fair CLR 75.9 66.9 74% 77 30.26 1023.3
20 20:53 SE 5 10.00 Fair CLR 79 68 69% 81 30.25 1023.0
20 19:53 SE 6 10.00 Fair CLR 82 68 63% 85 30.25 1022.9
20 18:53 SE 6 10.00 A Few Clouds FEW003 84 66.9 87.1 84 57% 87 30.25 1022.8
20 17:53 E 6 10.00 Fair CLR 84 66 55% 86 30.25 1023.1
20 16:53 E 7 10.00 Mostly Cloudy BKN045 86 64.9 49% 88 30.27 1023.8
20 15:53 E 5 10.00 A Few Clouds FEW042 84.9 64.9 51% 87 30.29 1024.2
20 14:53 S 3 10.00 Fair CLR 84.9 62.1 46% 85 30.3 1024.7
20 13:53 Calm 10.00 Fair CLR 84.9 63 48% 86 30.31 1025.1
20 12:53 E 6 10.00 Fair CLR 84 64 84 71.1 51% 85 30.33 1025.6
20 11:53 E 6 10.00 Fair CLR 82 66.9 60% 85 30.33 1025.6
20 10:53 Vrbl 3 10.00 Fair CLR 80.1 66 62% 82 30.33 1025.7
20 09:53 Vrbl 3 10.00 Fair CLR 78.1 66.9 69% 80 30.33 1025.7
20 08:53 Calm 10.00 Fair CLR 75 68 79% 76 30.33 1025.5
20 07:53 Calm 9.00 Fair CLR 72 68 87% 30.32 1025.4
20 06:53 Calm 4.00 Fog/Mist CLR 71.1 66.9 71.1 66 87% 30.3 1024.7
20 05:53 NE 3 8.00 Mostly Cloudy BKN004 66 63 90% 30.29 1024.5
20 04:53 Calm 4.00 Fog/Mist CLR 68 64.9 90% 30.27 1023.6
20 02:53 Calm 6.00 Fog/Mist CLR 69.1 66 90% 30.26 1023.4
20 01:53 Calm 10.00 Fair CLR 69.1 66 90% 30.27 1023.5
20 00:53 Calm 10.00 Fair CLR 71.1 66.9 84.9 71.1 87% 30.27 1023.6
19 23:53 E 5 10.00 Fair CLR 75 68 79% 76 30.27 1023.5
19 22:53 SE 7 10.00 Fair CLR 77 68 74% 79 30.26 1023.2
19 21:53 SE 5 10.00 Fair CLR 78.1 68 71% 80 30.25 1022.9
19 20:53 E 3 10.00 Fair CLR 80.1 66.9 64% 82 30.23 1022.3
19 19:53 SE 7 10.00 Fair CLR 82.9 66.9 59% 86 30.22 1021.8
19 18:53 E 7 10.00 A Few Clouds FEW080 84 68 88 84 59% 87 30.21 1021.7
19 17:53 Vrbl 5 10.00 Fair CLR 84.9 66.9 55% 88 30.21 1021.5
19 16:53 SE 6 10.00 Partly Cloudy SCT041 86 66.9 53% 89 30.2 1021.3
19 15:53 SE 7 10.00 A Few Clouds FEW042 87.1 66.9 51% 90 30.21 1021.3
19 14:53 SE 9 10.00 Fair CLR 86 66.9 53% 89 30.21 1021.4
19 13:53 SE 12 10.00 A Few Clouds FEW035 FEW046 84.9 66.9 55% 88 30.23 1022.2
Date Time (cdt) Wind (mph) Vis. (mi.) Weather Sky Cond. Air Dwpt Max. Min. Relative Humidity Wind Chill (°F) Heat Index (°F) altimeter (in) sea level (mb) 1 hr 3 hr 6 hr
6 hour
Temperature (ºF) Pressure Precipitation (in)